Temperature
17 17 17 17 18 18 18 17 17 17 17 17 17 17 17 17 17 17 17 17 17 18 18 17 17 18 18 18 18 18 18 18 18 18 18 18 18 18 18 18 18 18 18
17 17 17 17 17 17 17 17 17 17 17 17 17 17 17 17 17 17 17 17 17 17 17 17 17 17 17 17 18 18 18 18 18 18 18 18 18 18 18 18 18 18 18
17 17 17 17 17 17 17 17 17 17 17 17 17 17 17 17 17 17 17 17 17 17 17 17 17 17 17 17 17 17 17 18 18 18 18 18 18 18 18 18 18 18 18
17 17 17 17 17 17 17 17 17 17 17 16 16 16 16 16 16 16 16 16 16 17 17 17 17 17 17 17 17 17 17 17 18 18 18 18 18 18 18 18 18 18 18
17 17 17 17 17 17 17 17 16 16 16 16 16 16 16 16 15 16 16 16 16 16 16 16 16 16 17 17 17 17 17 17 17 17 17 18 18 18 18 18 18 18 18
17 17 17 17 16 16 16 16 16 16 16 16 16 15 15 15 15 15 15 15 15 16 16 16 16 16 16 16 17 17 17 17 17 17 17 17 17 17 18 18 18 18 18
17 17 16 16 16 16 16 16 16 16 15 15 15 15 15 15 15 15 15 15 15 15 15 16 16 16 16 16 16 16 17 17 17 17 17 17 17 17 17 17 18 18 18
17 17 16 16 16 16 16 16 16 15 15 15 15 15 15 15 15 15 15 15 15 15 15 16 16 16 16 16 16 16 17 17 17 17 17 17 17 17 17 17 17 18 18
17 17 16 16 16 16 16 15 15 15 15 15 15 15 15 15 15 15 15 15 15 15 15 15 16 16 16 16 16 16 17 17 17 17 17 17 17 17 17 17 17 17 17
17 16 16 16 16 16 16 15 15 15 15 15 15 15 15 15 15 15 15 15 15 15 15 15 15 16 16 16 16 16 16 17 17 17 17 17 17 17 17 17 17 17 17
17 17 16 16 16 16 16 15 15 15 15 15 15 15 15 15 15 15 15 15 15 15 15 15 15 15 16 16 16 16 16 16 17 17 17 17 17 17 17 17 17 17 17
17 17 16 16 16 16 16 15 15 15 15 15 15 15 15 15 15 15 15 15 15 15 15 15 15 15 15 16 16 16 16 16 16 17 16 16 16 16 17 17 17 17 17
17 17 16 16 16 16 16 16 15 15 15 15 15 15 15 15 15 15 15 15 15 15 15 15 15 15 15 16 16 16 16 16 16 16 16 16 16 16 16 17 17 17 17
17 17 17 16 16 16 16 16 16 16 16 15 15 15 15 15 15 15 15 15 15 15 15 15 15 15 16 16 16 16 16 16 16 16 16 16 16 16 16 16 16 17 17
17 17 17 17 16 16 16 16 16 16 16 15 15 15 15 15 15 15 15 15 15 15 15 15 15 15 16 16 16 16 16 16 16 16 16 16 16 16 16 16 16 16 16
17 17 17 17 16 16 16 16 16 16 15 15 15 15 15 15 15 15 15 15 15 15 15 15 15 15 15 15 15 15 15 15 15 15 15 15 16 16 16 16 16 16 16
18 17 17 17 16 16 16 16 16 16 15 15 15 15 15 15 15 15 15 15 15 15 15 15 15 15 15 15 15 15 15 15 15 15 15 15 15 15 16 16 16 16 16
18 17 17 17 17 16 16 16 16 16 15 15 15 15 15 15 15 15 15 15 15 15 15 15 15 15 15 15 15 15 15 15 15 15 15 15 15 15 15 16 16 16 16
18 18 17 17 17 16 16 16 16 16 15 15 15 15 15 15 15 15 15 15 15 15 15 15 15 15 15 15 15 15 15 15 15 15 15 15 15 15 15 15 15 16 16
18 18 17 17 17 17 16 16 16 16 15 15 15 15 15 15 15 15 15 15 15 15 15 15 15 15 15 15 15 15 15 15 15 15 15 15 15 15 15 15 15 15 15
18 18 18 17 17 17 16 16 16 16 15 15 15 15 15 15 15 15 15 15 15 15 15 15 15 15 15 15 15 15 14 14 15 15 15 15 15 14 15 15 15 15 15
18 18 18 17 17 17 16 16 16 16 15 15 15 15 15 15 15 15 15 15 15 15 15 15 15 15 15 15 15 15 14 14 14 14 14 14 14 14 14 14 14 15 15
18 18 18 17 17 17 16 16 16 16 15 15 15 15 15 15 15 15 15 15 15 15 15 15 15 15 15 15 15 15 15 14 14 14 14 14 14 14 14 14 14 14 14
18 18 18 17 17 17 17 16 16 16 16 15 15 15 15 15 15 15 15 15 15 15 15 15 15 15 15 15 15 15 15 15 14 14 14 14 14 14 14 14 14 14 14
18 18 18 18 17 17 17 17 16 16 16 16 15 15 15 15 15 15 15 15 15 15 15 15 15 15 15 15 15 15 15 15 14 14 13 13 14 14 14 14 14 14 14
18 18 18 18 17 17 17 17 17 16 16 16 16 15 15 15 15 15 15 15 15 15 15 15 15 15 15 15 15 15 15 15 14 14 14 13 13 13 13 13 14 14 14
Wind_Speed
1 2 5 8 9 10 11 11 12 12 13 13 13 12 12 12 12 11 11 11 10 10 9 9 9 9 9 9 8 8 7 7 7 6 7 7 6 6 6 6 5 4 4
1 3 6 8 9 10 11 12 12 13 13 13 12 12 11 11 10 10 10 9 9 9 9 8 8 8 8 8 8 7 7 6 6 6 6 6 6 5 5 5 5 4 4
4 5 7 9 10 11 12 13 13 13 13 12 12 11 10 10 10 9 9 9 9 8 8 8 8 7 8 7 7 6 6 5 5 6 6 5 4 4 5 5 5 5 5
5 6 8 10 11 12 12 12 12 12 12 11 11 10 9 9 9 8 8 8 7 7 7 7 6 6 7 7 7 6 6 6 5 5 5 4 3 4 4 5 5 5 5
6 7 9 11 12 12 12 12 12 11 11 10 10 9 8 8 8 7 7 6 6 6 6 5 5 6 6 6 6 6 5 5 5 6 4 4 3 4 4 4 5 5 5
5 7 9 11 11 11 11 11 11 10 10 9 8 8 7 7 7 7 6 5 5 5 5 4 5 5 5 6 6 5 5 5 6 6 4 3 3 3 4 4 4 5 6
5 6 8 11 11 11 10 10 10 9 9 8 8 7 7 7 7 6 6 5 4 4 3 4 4 4 4 5 5 4 4 5 5 5 3 2 2 2 3 4 4 5 6
5 5 7 9 9 9 9 9 9 8 8 7 7 7 6 6 6 7 6 5 5 4 4 4 3 3 3 4 4 4 4 5 4 3 3 2 2 2 3 3 4 5 6
5 5 6 7 7 7 7 8 8 7 6 6 6 6 5 5 5 6 6 5 4 4 4 4 4 3 3 4 4 3 4 5 5 3 2 2 2 3 3 4 4 5 5
4 4 4 6 7 7 7 6 7 7 7 7 6 6 5 6 6 6 7 6 6 5 4 5 5 4 5 5 4 5 5 5 5 4 2 2 2 3 4 4 5 5 5
2 2 2 3 5 5 6 7 8 8 9 8 8 8 7 7 7 7 7 7 7 6 6 6 5 5 6 5 5 6 6 5 4 4 3 2 3 4 4 4 5 5 5
1 0 1 2 3 4 5 7 7 7 8 8 8 7 6 6 7 7 8 9 8 7 7 7 7 6 6 6 5 6 6 5 5 4 4 4 4 5 5 5 5 5 5
2 1 1 1 2 3 4 5 5 6 7 8 7 7 6 7 7 8 8 9 9 8 8 7 7 7 6 5 5 6 6 6 5 5 5 5 6 6 6 6 5 6 6
3 2 2 2 2 2 3 3 4 5 5 6 6 6 6 5 5 6 6 7 7 7 6 6 6 7 7 6 6 6 6 6 6 6 6 7 7 7 7 7 7 7 7
3 3 2 3 3 2 3 3 4 4 4 5 6 6 6 4 3 4 4 6 6 7 6 5 5 6 6 7 7 7 7 7 7 7 8 9 10 9 9 8 8 8 8
4 3 3 3 4 4 3 3 3 4 5 6 7 6 6 6 4 4 4 5 6 6 6 5 5 5 5 6 7 8 8 8 8 9 9 10 11 11 11 10 10 9 9
5 4 4 5 5 5 4 4 5 5 7 7 7 7 7 7 6 5 4 4 5 6 7 7 7 6 5 6 7 7 8 8 8 9 10 11 11 12 14 13 12 11 11
6 5 5 5 6 6 5 5 5 6 7 7 7 8 8 8 7 6 4 4 5 6 6 4 4 5 6 6 6 6 6 7 8 9 11 11 11 11 12 14 14 14 13
6 6 6 7 7 6 6 6 6 7 7 7 7 8 8 9 8 7 5 5 6 6 5 4 5 4 5 5 6 6 6 6 6 8 9 11 11 12 12 13 15 15 14
6 6 7 7 6 6 5 5 4 5 5 7 7 8 8 8 8 8 6 6 6 5 5 5 6 6 5 4 6 7 6 6 6 7 7 9 11 12 13 13 13 13 15
6 6 6 7 5 5 3 3 3 3 3 3 5 8 8 8 8 8 5 6 5 5 5 4 4 6 5 3 4 5 5 6 7 7 7 7 9 11 12 13 12 12 12
6 6 6 6 6 4 3 3 3 3 2 2 3 7 9 8 8 7 6 4 5 5 6 5 4 3 4 4 3 4 4 5 5 7 6 7 7 9 10 12 12 12 12
7 8 7 7 6 4 4 4 4 4 3 3 4 4 6 8 8 8 7 6 5 5 4 4 4 4 3 4 4 3 4 1 2 4 6 6 7 7 8 10 13 13 13
7 6 6 7 6 5 5 5 5 3 2 1 1 2 4 8 8 8 8 7 6 4 5 4 4 3 4 3 3 4 3 3 3 2 3 5 6 8 8 8 11 13 14
7 7 6 6 5 5 5 6 6 4 2 2 2 4 4 5 8 8 8 7 6 5 5 5 5 5 3 3 2 2 4 4 3 3 2 3 4 5 6 7 9 11 13
6 6 6 7 5 5 5 5 6 6 5 4 3 3 3 3 4 6 7 7 6 5 5 5 5 6 5 5 4 3 2 2 2 3 3 2 3 3 4 5 8 10 12
Wind_Direction
352 6 92 96 97 99 100 101 99 99 98 96 96 97 96 96 95 92 88 86 85 84 85 86 85 82 80 79 77 77 81 81 79 78 79 80 73 68 74 78 73 63 62
110 76 102 100 98 98 97 96 96 95 93 92 92 93 93 93 93 92 89 86 83 79 79 79 78 78 76 73 71 68 70 72 74 74 73 71 69 64 67 73 67 61 51
83 78 95 103 100 98 95 93 93 92 92 92 91 90 91 92 91 88 87 83 80 77 77 76 74 73 72 67 65 62 61 63 69 70 65 57 54 64 64 65 59 52 42
86 85 97 99 97 95 94 93 92 91 92 91 91 89 88 88 88 88 87 84 79 78 74 72 70 68 67 63 57 53 54 60 70 71 58 44 41 64 62 55 49 44 35
76 83 96 99 98 96 94 93 92 91 90 89 88 87 84 81 81 84 84 84 82 76 70 67 63 61 56 52 49 47 52 61 68 68 59 45 38 52 54 48 43 37 29
78 84 97 100 99 98 94 91 89 88 88 87 85 83 80 75 73 73 73 74 74 71 66 61 55 53 49 41 42 43 55 63 70 68 59 45 36 49 51 50 41 30 24
89 83 98 102 100 98 95 91 88 86 85 83 80 77 73 67 63 63 65 67 68 69 64 56 50 47 42 36 36 41 64 68 79 71 57 37 18 44 51 44 37 31 23
93 75 83 98 98 93 89 88 86 83 80 78 73 67 62 58 54 54 55 55 56 54 50 49 44 44 40 35 39 45 57 66 78 67 52 23 3 50 47 34 33 29 24
80 69 57 61 68 74 78 79 77 73 68 64 60 56 51 45 43 42 37 37 42 46 47 47 44 45 44 47 53 59 72 80 78 64 48 15 25 52 44 33 28 28 22
74 60 49 48 47 43 43 54 58 56 52 47 42 38 36 32 29 23 19 23 30 42 50 48 50 55 51 52 63 80 82 83 69 62 37 21 39 45 41 29 23 23 21
89 49 41 38 35 33 29 34 35 36 38 38 31 30 34 30 23 17 20 25 33 44 51 49 52 55 51 48 62 76 81 82 73 57 31 32 44 43 38 29 21 18 19
177 254 42 37 26 25 27 33 30 32 34 37 35 34 35 38 32 28 25 27 31 35 39 41 43 48 51 50 59 73 80 80 72 48 33 41 44 43 39 34 28 25 28
195 204 173 115 52 41 31 29 30 33 36 35 35 38 45 45 35 30 28 26 28 32 35 35 41 45 53 59 67 73 79 75 63 44 31 40 40 39 35 33 31 33 33
179 202 199 140 103 68 55 40 38 41 38 32 34 45 56 48 37 31 31 25 28 31 36 41 47 50 55 63 72 73 74 71 61 46 32 38 38 36 35 36 37 40 35
184 193 185 145 130 103 76 57 56 49 48 47 49 53 66 60 40 37 36 32 31 35 41 42 51 56 52 53 61 66 65 64 58 48 35 37 39 34 34 35 40 38 38
177 161 143 129 125 110 90 79 64 59 61 60 54 59 68 67 58 51 43 36 31 32 46 55 61 64 58 58 55 56 58 61 57 50 40 36 36 37 37 37 39 37 40
163 144 139 129 114 108 100 87 75 62 65 58 52 58 64 68 67 64 52 38 28 39 56 62 62 65 64 61 54 50 53 53 54 48 43 40 37 36 37 39 39 39 41
145 136 137 127 116 108 95 85 75 64 63 56 55 59 59 64 67 65 55 34 33 51 57 61 56 65 60 61 57 45 42 43 44 47 46 43 39 34 32 36 38 38 40
145 132 117 115 117 109 94 84 74 64 56 50 53 55 55 59 63 66 56 40 48 56 50 63 57 70 71 70 69 53 43 42 39 45 43 41 40 37 34 34 36 38 40
130 122 117 112 112 108 92 78 63 51 41 42 43 45 51 55 60 64 58 45 52 59 53 58 69 63 65 68 75 62 48 43 44 37 36 39 40 39 37 35 33 32 36
126 126 129 129 132 126 108 96 84 59 29 25 32 40 47 54 58 61 59 50 49 60 63 68 80 71 51 37 74 55 37 41 47 36 32 37 35 34 37 35 32 31 29
151 148 142 146 149 146 124 119 113 106 66 35 22 36 39 46 52 61 60 55 52 62 60 57 72 84 51 33 84 84 43 19 21 26 28 35 29 30 35 35 32 31 29
167 170 164 162 158 150 130 109 85 62 41 28 20 18 22 41 52 58 60 63 57 61 66 59 67 93 92 44 49 108 115 121 11 11 25 31 28 30 28 31 32 29 29
185 173 160 158 157 154 146 137 131 123 113 65 23 19 28 42 49 54 59 63 61 59 61 57 63 81 103 89 55 52 87 130 118 54 9 15 29 34 27 28 26 27 28
179 169 161 152 155 157 154 147 134 124 126 98 66 53 38 34 43 50 59 64 62 59 59 60 64 68 79 99 95 84 71 61 69 110 63 2 13 16 20 20 24 24 26
169 162 157 154 159 157 153 150 148 146 138 119 95 77 46 33 33 43 57 62 63 61 59 63 68 72 72 81 81 83 99 99 94 99 107 48 17 351 360 14 23 17 22
Height
1529 1529 1529 1530 1530 1530 1530 1531 1531 1532 1532 1533 1533 1534 1534 1535 1535 1535 1536 1536 1537 1537 1538 1538 1539 1539 1540 1540 1541 1541 1542 1542 1542 1543 1543 1543 1543 1543 1543 1543 1542 1542 1542
1530 1530 1530 1530 1531 1531 1532 1532 1533 1533 1533 1533 1534 1534 1535 1535 1536 1536 1536 1537 1537 1537 1538 1539 1539 1540 1540 1541 1541 1542 1542 1543 1543 1543 1543 1543 1544 1544 1544 1543 1543 1542 1542
1531 1531 1531 1532 1532 1532 1533 1533 1533 1534 1534 1534 1535 1535 1535 1536 1536 1536 1537 1537 1537 1538 1538 1539 1539 1540 1540 1541 1542 1543 1543 1544 1544 1544 1544 1544 1544 1544 1544 1544 1543 1543 1542
1532 1532 1532 1533 1533 1533 1534 1534 1534 1534 1535 1535 1535 1536 1536 1536 1537 1537 1537 1537 1538 1538 1538 1539 1539 1540 1541 1542 1542 1543 1544 1544 1545 1545 1545 1545 1545 1545 1545 1544 1544 1543 1543
1533 1533 1534 1534 1534 1535 1535 1535 1535 1536 1536 1536 1536 1537 1537 1537 1537 1537 1537 1537 1538 1538 1539 1539 1540 1540 1541 1542 1543 1543 1544 1545 1545 1546 1546 1546 1546 1546 1545 1545 1544 1544 1543
1534 1535 1535 1535 1536 1536 1536 1537 1537 1537 1537 1538 1538 1538 1538 1538 1538 1538 1538 1538 1538 1538 1539 1539 1540 1541 1541 1542 1543 1544 1545 1546 1546 1546 1546 1546 1546 1546 1546 1545 1545 1544 1543
1536 1536 1537 1537 1537 1538 1538 1539 1539 1539 1539 1539 1539 1539 1539 1539 1539 1539 1538 1538 1538 1539 1539 1539 1540 1541 1541 1542 1543 1544 1545 1546 1547 1547 1547 1547 1547 1547 1546 1546 1545 1544 1543
1538 1538 1539 1539 1540 1540 1541 1541 1541 1541 1541 1541 1541 1541 1540 1540 1540 1540 1539 1539 1539 1539 1539 1540 1540 1541 1542 1543 1543 1544 1545 1546 1547 1547 1547 1547 1547 1547 1547 1546 1546 1545 1544
1540 1541 1541 1542 1542 1543 1543 1543 1543 1544 1543 1543 1543 1542 1542 1541 1541 1541 1540 1540 1540 1540 1540 1540 1541 1541 1542 1543 1544 1545 1546 1547 1548 1548 1548 1548 1548 1548 1547 1547 1546 1545 1544
1542 1543 1544 1544 1545 1545 1545 1545 1545 1545 1545 1545 1544 1544 1543 1543 1542 1542 1541 1541 1541 1541 1541 1541 1542 1542 1543 1544 1544 1546 1546 1547 1548 1549 1549 1549 1549 1548 1548 1547 1547 1546 1545
1545 1546 1546 1546 1547 1547 1547 1547 1547 1547 1547 1546 1546 1545 1544 1544 1544 1543 1543 1542 1542 1542 1542 1542 1543 1543 1544 1544 1545 1546 1547 1548 1549 1549 1549 1549 1549 1549 1548 1548 1547 1546 1545
1547 1548 1548 1549 1549 1549 1549 1549 1549 1549 1548 1548 1547 1546 1546 1545 1545 1544 1544 1543 1543 1543 1543 1543 1544 1544 1545 1545 1546 1547 1548 1549 1549 1550 1550 1550 1549 1549 1549 1548 1547 1546 1546
1548 1549 1550 1551 1551 1551 1551 1551 1551 1550 1550 1549 1548 1548 1547 1547 1546 1546 1545 1545 1544 1544 1544 1545 1545 1546 1546 1547 1548 1548 1549 1550 1550 1550 1550 1550 1550 1550 1549 1548 1548 1547 1546
1549 1550 1551 1552 1553 1553 1553 1553 1553 1552 1551 1551 1550 1549 1549 1548 1548 1547 1546 1546 1546 1546 1546 1546 1547 1547 1548 1548 1549 1550 1550 1551 1551 1551 1551 1551 1551 1550 1549 1549 1548 1548 1547
1550 1552 1553 1553 1554 1554 1554 1554 1554 1553 1553 1552 1552 1551 1550 1550 1549 1548 1548 1547 1547 1547 1547 1548 1548 1549 1549 1550 1551 1551 1552 1552 1552 1552 1552 1552 1551 1551 1550 1549 1549 1548 1547
1551 1553 1554 1554 1555 1555 1556 1555 1555 1555 1554 1554 1553 1552 1552 1551 1550 1550 1549 1549 1549 1549 1549 1549 1550 1550 1551 1552 1552 1553 1553 1554 1554 1554 1554 1553 1552 1551 1551 1550 1550 1549 1548
1552 1554 1555 1556 1556 1557 1557 1557 1556 1556 1556 1555 1555 1554 1553 1553 1552 1551 1551 1550 1550 1550 1551 1551 1552 1552 1553 1553 1554 1555 1555 1556 1556 1555 1555 1554 1554 1553 1552 1551 1551 1550 1549
1553 1555 1556 1557 1557 1558 1558 1558 1558 1558 1557 1557 1556 1556 1555 1554 1553 1553 1552 1552 1552 1552 1552 1553 1553 1554 1555 1555 1556 1556 1557 1557 1557 1557 1557 1556 1555 1554 1553 1553 1552 1551 1550
1554 1556 1557 1558 1558 1559 1559 1559 1559 1559 1559 1559 1558 1557 1557 1556 1555 1555 1554 1554 1554 1554 1554 1554 1555 1556 1556 1557 1558 1558 1559 1559 1559 1559 1559 1558 1557 1556 1555 1554 1554 1553 1552
1555 1557 1558 1559 1560 1560 1561 1561 1561 1561 1561 1560 1560 1559 1558 1558 1557 1557 1556 1556 1555 1556 1556 1556 1557 1557 1558 1559 1560 1560 1561 1561 1561 1561 1561 1560 1559 1558 1557 1556 1555 1554 1553
1556 1558 1559 1560 1561 1562 1562 1562 1562 1562 1562 1562 1561 1561 1560 1560 1559 1559 1558 1558 1557 1557 1558 1558 1559 1559 1560 1561 1562 1562 1563 1563 1563 1563 1563 1562 1561 1560 1559 1558 1557 1556 1554
1557 1558 1560 1561 1562 1563 1563 1564 1564 1564 1564 1564 1563 1563 1562 1562 1561 1561 1560 1560 1559 1559 1560 1560 1561 1561 1562 1562 1563 1564 1565 1566 1565 1565 1565 1564 1563 1563 1561 1560 1559 1558 1556
1557 1559 1560 1562 1563 1564 1564 1565 1565 1565 1565 1565 1565 1564 1564 1564 1563 1563 1562 1562 1561 1561 1561 1562 1562 1563 1563 1564 1564 1565 1566 1566 1567 1568 1567 1566 1565 1564 1563 1562 1561 1560 1559
1556 1559 1561 1562 1563 1564 1565 1566 1566 1566 1566 1566 1566 1566 1566 1565 1565 1565 1564 1564 1563 1563 1563 1563 1563 1564 1564 1565 1565 1566 1567 1567 1568 1569 1569 1568 1567 1566 1565 1564 1563 1562 1561
1556 1559 1561 1562 1564 1565 1566 1567 1567 1568 1568 1568 1568 1568 1567 1567 1567 1567 1566 1566 1565 1565 1565 1565 1565 1565 1566 1566 1566 1567 1567 1568 1568 1569 1569 1569 1569 1568 1567 1566 1565 1564 1563
1555 1558 1560 1562 1564 1565 1566 1567 1568 1569 1569 1569 1569 1569 1569 1569 1569 1569 1568 1568 1567 1567 1567 1567 1567 1567 1567 1567 1567 1568 1568 1569 1569 1569 1569 1570 1570 1570 1569 1568 1567 1566 1564